Location: Unspecified
(44.0704°N, 88.6889°W)
Time: 19:01:11
(UTC+02:00)

SR - All Passes

Search period start: 17 June 2019 00:00
Search period end: 27 June 2019 00:00
Orbit: 582 x 874 km, 66.7° (Epoch: 16 June)

Date Brightness Start Highest point End Pass type
(mag) Time Alt. Az. Time Alt. Az. Time Alt. Az.
17 Jun - 12:31:58 10° SSW 12:36:09 62° ESE 12:40:24 10° NE daylight
17 Jun - 14:15:41 10° W 14:18:36 18° NW 14:21:35 10° N daylight
17 Jun - 19:29:51 10° N 19:32:09 13° NE 19:34:30 10° ENE daylight
17 Jun - 21:10:12 10° NNW 21:15:00 67° ENE 21:20:14 10° SE daylight
17 Jun - 22:53:24 10° WNW 22:56:39 17° WSW 23:00:02 10° SSW daylight
18 Jun - 11:43:07 10° S 11:46:44 27° ESE 11:50:22 10° NE daylight
18 Jun - 13:24:50 10° WSW 13:28:38 32° NW 13:32:32 10° NNE daylight
18 Jun - 20:20:50 10° NNW 20:25:15 36° NE 20:30:01 10° ESE daylight
18 Jun - 22:02:51 10° NW 22:07:17 34° WSW 22:12:01 10° S daylight
19 Jun - 10:55:37 10° SE 10:57:28 13° ESE 10:59:18 10° E visible
19 Jun - 12:34:40 10° SW 12:38:52 65° NW 12:43:10 10° NNE daylight
19 Jun - 14:20:36 10° NW 14:21:50 11° NW 14:23:05 10° NNW daylight
19 Jun - 19:31:42 10° N 19:35:20 21° NE 19:39:10 10° E daylight
19 Jun - 21:12:56 10° NW 21:17:46 68° WSW 21:23:02 10° SSE daylight
20 Jun - 11:45:08 10° SSW 11:49:17 57° ESE 11:53:31 10° NE daylight
20 Jun - 13:28:39 10° W 13:31:41 19° NW 13:34:47 10° N daylight
20 Jun - 18:43:04 10° N 18:45:14 13° NE 18:47:27 10° ENE daylight
20 Jun - 20:23:19 10° NNW 20:28:09 63° NE 20:33:22 10° SE daylight
20 Jun - 22:06:23 10° WNW 22:09:50 19° WSW 22:13:25 10° SSW daylight
21 Jun - 10:56:22 10° SSE 10:59:52 26° ESE 11:03:26 10° NE visible
21 Jun - 12:37:52 10° WSW 12:41:44 33° NW 12:45:43 10° NNE daylight
21 Jun - 19:33:58 10° NNW 19:38:23 34° NE 19:43:07 10° ESE daylight
21 Jun - 21:15:55 10° NW 21:20:26 36° WSW 21:25:17 10° S daylight
22 Jun - 10:09:06 10° SE 10:10:37 12° ESE 10:12:09 10° E visible
22 Jun - 11:47:46 10° SW 11:51:59 69° WNW 11:56:19 10° NNE daylight
22 Jun - 13:33:22 10° NW 13:34:55 12° NW 13:36:27 10° NNW daylight
22 Jun - 18:44:52 10° N 18:48:27 20° NE 18:52:13 10° E daylight
22 Jun - 20:26:02 10° NW 20:30:55 72° WSW 20:36:14 10° SSE daylight
23 Jun - 10:58:18 10° SSW 11:02:25 53° ESE 11:06:37 10° NE visible
23 Jun - 12:41:38 10° W 12:44:46 20° NW 12:48:00 10° N daylight
23 Jun - 17:56:17 10° N 17:58:19 12° NE 18:00:24 10° ENE daylight
23 Jun - 19:36:28 10° NNW 19:41:17 60° NE 19:46:31 10° SE daylight
23 Jun - 21:19:23 10° WNW 21:23:00 20° WSW 21:26:48 10° SSW daylight
24 Jun - 10:09:36 10° SSE 10:13:02 24° ESE 10:16:29 10° ENE visible
24 Jun - 11:50:56 10° WSW 11:54:50 35° NW 11:58:52 10° NNE daylight
24 Jun - 18:47:07 10° NNW 18:51:30 33° NE 18:56:12 10° ESE daylight
24 Jun - 20:29:00 10° NW 20:33:36 39° WSW 20:38:33 10° S daylight
25 Jun - 09:22:43 10° ESE 09:23:47 11° ESE 09:24:52 10° E visible
25 Jun - 11:00:53 10° SW 11:05:06 74° WNW 11:09:27 10° NNE visible
25 Jun - 12:46:12 10° WNW 12:47:59 12° NW 12:49:47 10° N daylight
25 Jun - 17:58:01 10° N 18:01:33 20° NE 18:05:15 10° E daylight
25 Jun - 19:39:09 10° NW 19:44:04 76° WSW 19:49:26 10° SSE daylight
25 Jun - 21:24:55 10° W 21:25:26 10° WSW 21:25:56 10° WSW daylight
26 Jun - 10:11:28 10° S 10:15:33 49° ESE 10:19:44 10° NE visible
26 Jun - 11:54:37 10° W 11:57:52 21° NW 12:01:12 10° N daylight
26 Jun - 17:09:32 10° NNE 17:11:24 12° NE 17:13:20 10° ENE daylight
26 Jun - 18:49:35 10° NNW 18:54:25 57° NE 18:59:39 10° SE daylight
26 Jun - 20:32:24 10° WNW 20:36:10 21° WSW 20:40:09 10° SSW daylight
